QPF
0.06 0.07 0.07 0.08 0.05 0.04 0.04 0.06 0.03 0.01 0.01 0.01 0.00 0.00 0.00 0.00 0.00 0.00 0.01 0.01 0.00 0.01 0.01 0.01 0.01 0.01 0.01 0.01 0.01 0.01 0.01 0.01 0.00 0.00 0.01 0.01 0.01 0.02 0.02 0.02 0.02 0.02 0.02
0.05 0.06 0.07 0.08 0.05 0.04 0.06 0.05 0.03 0.03 0.03 0.02 0.01 0.01 0.01 0.01 0.00 0.00 0.01 0.01 0.00 0.00 0.01 0.01 0.01 0.02 0.02 0.01 0.01 0.01 0.01 0.01 0.01 0.00 0.01 0.01 0.01 0.01 0.01 0.01 0.01 0.02 0.01
0.05 0.06 0.06 0.06 0.05 0.04 0.05 0.05 0.03 0.04 0.04 0.02 0.02 0.01 0.01 0.01 0.01 0.00 0.01 0.01 0.01 0.00 0.01 0.01 0.01 0.02 0.02 0.01 0.02 0.02 0.01 0.02 0.02 0.01 0.01 0.01 0.01 0.01 0.01 0.01 0.01 0.01 0.02
0.04 0.05 0.05 0.05 0.04 0.03 0.04 0.06 0.06 0.06 0.04 0.03 0.02 0.02 0.01 0.02 0.01 0.01 0.01 0.01 0.01 0.01 0.01 0.01 0.01 0.01 0.02 0.02 0.02 0.03 0.03 0.03 0.03 0.02 0.02 0.02 0.01 0.01 0.01 0.01 0.01 0.02 0.02
0.03 0.05 0.06 0.05 0.05 0.05 0.05 0.05 0.07 0.07 0.07 0.05 0.03 0.02 0.01 0.01 0.02 0.01 0.01 0.01 0.01 0.01 0.02 0.02 0.01 0.02 0.02 0.02 0.02 0.03 0.04 0.04 0.04 0.04 0.04 0.04 0.04 0.03 0.02 0.02 0.02 0.03 0.02
0.04 0.06 0.07 0.05 0.04 0.05 0.05 0.06 0.07 0.08 0.07 0.07 0.04 0.02 0.02 0.01 0.02 0.02 0.01 0.01 0.02 0.02 0.02 0.03 0.04 0.03 0.03 0.03 0.01 0.01 0.02 0.03 0.05 0.06 0.06 0.06 0.06 0.05 0.03 0.03 0.03 0.03 0.04
0.04 0.07 0.07 0.07 0.06 0.07 0.06 0.04 0.06 0.07 0.07 0.07 0.07 0.05 0.03 0.02 0.02 0.02 0.03 0.04 0.03 0.04 0.04 0.06 0.11 0.11 0.09 0.06 0.03 0.02 0.02 0.02 0.04 0.04 0.04 0.06 0.07 0.05 0.04 0.04 0.04 0.04 0.05
0.02 0.03 0.04 0.04 0.06 0.08 0.07 0.06 0.07 0.08 0.08 0.07 0.08 0.12 0.13 0.11 0.07 0.03 0.04 0.05 0.05 0.07 0.07 0.07 0.10 0.12 0.10 0.08 0.07 0.04 0.03 0.02 0.03 0.04 0.03 0.03 0.03 0.04 0.05 0.05 0.05 0.05 0.03
0.02 0.03 0.02 0.03 0.05 0.06 0.09 0.08 0.06 0.07 0.07 0.07 0.08 0.10 0.15 0.17 0.13 0.09 0.08 0.06 0.06 0.06 0.05 0.06 0.07 0.07 0.06 0.07 0.11 0.08 0.03 0.02 0.03 0.03 0.03 0.03 0.03 0.04 0.04 0.05 0.08 0.05 0.03
0.01 0.02 0.02 0.03 0.05 0.06 0.08 0.06 0.06 0.07 0.08 0.08 0.07 0.07 0.09 0.11 0.14 0.14 0.09 0.05 0.05 0.06 0.05 0.04 0.05 0.05 0.06 0.08 0.09 0.07 0.05 0.04 0.03 0.04 0.04 0.03 0.04 0.04 0.05 0.07 0.08 0.05 0.04
0.02 0.01 0.02 0.04 0.05 0.05 0.05 0.05 0.06 0.05 0.06 0.07 0.08 0.08 0.10 0.11 0.10 0.13 0.13 0.09 0.05 0.05 0.04 0.05 0.06 0.05 0.07 0.08 0.08 0.07 0.07 0.05 0.03 0.03 0.04 0.05 0.04 0.03 0.04 0.06 0.06 0.05 0.05
0.03 0.02 0.03 0.04 0.04 0.05 0.05 0.05 0.06 0.05 0.05 0.06 0.08 0.08 0.09 0.09 0.10 0.12 0.14 0.13 0.09 0.07 0.06 0.07 0.07 0.05 0.06 0.06 0.04 0.06 0.06 0.05 0.03 0.02 0.02 0.03 0.04 0.04 0.05 0.05 0.06 0.06 0.06
0.03 0.04 0.04 0.05 0.04 0.04 0.03 0.04 0.05 0.05 0.05 0.05 0.07 0.07 0.07 0.07 0.08 0.11 0.12 0.12 0.10 0.08 0.08 0.07 0.06 0.05 0.05 0.06 0.07 0.08 0.05 0.04 0.03 0.03 0.03 0.02 0.03 0.03 0.03 0.04 0.05 0.05 0.05
0.02 0.03 0.04 0.03 0.03 0.02 0.02 0.06 0.05 0.05 0.06 0.06 0.05 0.07 0.07 0.07 0.09 0.11 0.12 0.14 0.14 0.12 0.11 0.09 0.07 0.04 0.04 0.05 0.06 0.08 0.04 0.04 0.03 0.03 0.03 0.02 0.02 0.02 0.02 0.02 0.02 0.03 0.03
0.03 0.03 0.03 0.03 0.03 0.03 0.04 0.06 0.06 0.05 0.06 0.06 0.05 0.06 0.07 0.07 0.09 0.09 0.11 0.14 0.16 0.16 0.14 0.12 0.08 0.05 0.04 0.04 0.05 0.06 0.04 0.06 0.04 0.03 0.02 0.02 0.03 0.03 0.02 0.02 0.03 0.03 0.02
0.05 0.04 0.04 0.03 0.02 0.03 0.04 0.06 0.07 0.06 0.06 0.07 0.07 0.08 0.09 0.07 0.07 0.07 0.09 0.11 0.13 0.15 0.13 0.09 0.07 0.04 0.03 0.03 0.07 0.06 0.06 0.07 0.06 0.04 0.03 0.02 0.02 0.02 0.02 0.03 0.03 0.03 0.02
0.06 0.05 0.04 0.05 0.04 0.04 0.05 0.07 0.06 0.05 0.06 0.06 0.05 0.06 0.08 0.08 0.07 0.06 0.07 0.09 0.10 0.11 0.10 0.06 0.06 0.05 0.06 0.06 0.08 0.11 0.12 0.10 0.07 0.07 0.03 0.02 0.03 0.02 0.02 0.02 0.02 0.03 0.03
0.06 0.04 0.05 0.06 0.07 0.08 0.10 0.09 0.05 0.05 0.06 0.06 0.06 0.06 0.05 0.06 0.07 0.06 0.08 0.08 0.09 0.10 0.09 0.09 0.08 0.07 0.09 0.09 0.10 0.11 0.09 0.08 0.06 0.06 0.04 0.02 0.02 0.01 0.01 0.01 0.01 0.02 0.03
0.06 0.06 0.07 0.08 0.08 0.08 0.08 0.07 0.05 0.04 0.05 0.06 0.07 0.07 0.04 0.04 0.05 0.06 0.08 0.07 0.07 0.06 0.09 0.09 0.07 0.08 0.09 0.09 0.10 0.08 0.07 0.09 0.07 0.07 0.05 0.03 0.02 0.01 0.01 0.01 0.02 0.01 0.01
0.10 0.10 0.10 0.08 0.06 0.06 0.05 0.05 0.04 0.04 0.05 0.07 0.07 0.07 0.05 0.04 0.05 0.06 0.06 0.06 0.06 0.05 0.06 0.06 0.06 0.08 0.09 0.09 0.08 0.08 0.08 0.07 0.05 0.05 0.06 0.05 0.04 0.03 0.02 0.02 0.02 0.02 0.01
0.17 0.12 0.08 0.06 0.05 0.05 0.05 0.05 0.05 0.05 0.06 0.07 0.07 0.06 0.05 0.05 0.05 0.06 0.04 0.05 0.07 0.06 0.07 0.07 0.07 0.09 0.10 0.09 0.08 0.09 0.09 0.09 0.09 0.08 0.10 0.09 0.08 0.06 0.05 0.03 0.03 0.02 0.02
0.11 0.09 0.07 0.07 0.06 0.05 0.07 0.07 0.06 0.06 0.06 0.06 0.06 0.07 0.06 0.06 0.06 0.06 0.06 0.05 0.05 0.05 0.07 0.07 0.06 0.07 0.09 0.09 0.08 0.09 0.10 0.12 0.13 0.12 0.14 0.15 0.14 0.13 0.09 0.06 0.04 0.03 0.02
0.09 0.09 0.09 0.09 0.08 0.08 0.09 0.07 0.05 0.05 0.05 0.06 0.07 0.07 0.06 0.07 0.07 0.06 0.06 0.04 0.03 0.04 0.04 0.05 0.05 0.07 0.09 0.09 0.07 0.08 0.11 0.12 0.13 0.14 0.16 0.15 0.12 0.11 0.09 0.08 0.07 0.05 0.05
0.09 0.09 0.09 0.11 0.11 0.09 0.08 0.06 0.04 0.04 0.05 0.06 0.07 0.08 0.07 0.07 0.08 0.07 0.06 0.05 0.05 0.04 0.03 0.03 0.03 0.05 0.06 0.05 0.04 0.05 0.06 0.06 0.06 0.06 0.08 0.07 0.05 0.05 0.05 0.05 0.07 0.06 0.05
0.07 0.07 0.08 0.09 0.09 0.08 0.09 0.07 0.04 0.04 0.05 0.07 0.07 0.08 0.09 0.07 0.08 0.06 0.06 0.06 0.05 0.04 0.04 0.05 0.04 0.03 0.02 0.02 0.02 0.03 0.04 0.05 0.05 0.04 0.06 0.06 0.05 0.04 0.04 0.04 0.04 0.06 0.05
0.06 0.06 0.07 0.06 0.06 0.06 0.09 0.06 0.04 0.03 0.05 0.06 0.06 0.06 0.08 0.07 0.05 0.04 0.04 0.05 0.04 0.04 0.05 0.04 0.03 0.02 0.01 0.02 0.03 0.03 0.04 0.05 0.04 0.04 0.05 0.05 0.05 0.06 0.05 0.04 0.04 0.04 0.05
MSLP
1016.39 1016.64 1016.77 1016.81 1016.81 1016.82 1016.87 1016.97 1017.12 1017.28 1017.45 1017.59 1017.72 1017.84 1017.99 1018.19 1018.48 1018.86 1019.31 1019.80 1020.28 1020.72 1021.09 1021.36 1021.55 1021.68 1021.79 1021.91 1022.06 1022.24 1022.45 1022.67 1022.89 1023.09 1023.27 1023.43 1023.57 1023.72 1023.86 1024.01 1024.16 1024.30 1024.41
1016.54 1016.77 1016.88 1016.90 1016.89 1016.89 1016.93 1017.04 1017.19 1017.38 1017.57 1017.74 1017.89 1018.03 1018.17 1018.35 1018.58 1018.90 1019.28 1019.71 1020.15 1020.58 1020.96 1021.27 1021.53 1021.74 1021.92 1022.09 1022.27 1022.45 1022.65 1022.84 1023.02 1023.19 1023.34 1023.49 1023.63 1023.78 1023.94 1024.11 1024.27 1024.42 1024.54
1016.60 1016.81 1016.91 1016.93 1016.93 1016.95 1017.01 1017.14 1017.32 1017.53 1017.75 1017.94 1018.11 1018.24 1018.37 1018.51 1018.69 1018.93 1019.23 1019.58 1019.97 1020.36 1020.74 1021.09 1021.40 1021.68 1021.93 1022.16 1022.38 1022.59 1022.78 1022.95 1023.10 1023.24 1023.37 1023.50 1023.64 1023.80 1023.98 1024.16 1024.35 1024.52 1024.65
1016.59 1016.77 1016.87 1016.92 1016.95 1017.01 1017.11 1017.27 1017.48 1017.71 1017.95 1018.17 1018.34 1018.48 1018.59 1018.69 1018.82 1018.98 1019.20 1019.46 1019.77 1020.11 1020.46 1020.81 1021.16 1021.49 1021.80 1022.09 1022.35 1022.59 1022.79 1022.96 1023.10 1023.22 1023.33 1023.45 1023.59 1023.76 1023.96 1024.17 1024.38 1024.57 1024.74
1016.51 1016.69 1016.80 1016.89 1016.97 1017.08 1017.23 1017.42 1017.66 1017.91 1018.16 1018.39 1018.57 1018.71 1018.81 1018.89 1018.97 1019.07 1019.20 1019.38 1019.60 1019.86 1020.16 1020.48 1020.82 1021.17 1021.52 1021.85 1022.16 1022.44 1022.67 1022.86 1023.00 1023.13 1023.24 1023.36 1023.51 1023.68 1023.89 1024.12 1024.35 1024.57 1024.76
1016.41 1016.58 1016.72 1016.86 1017.00 1017.16 1017.35 1017.58 1017.83 1018.10 1018.35 1018.57 1018.76 1018.90 1019.01 1019.08 1019.14 1019.20 1019.27 1019.36 1019.49 1019.66 1019.87 1020.12 1020.42 1020.75 1021.10 1021.46 1021.81 1022.13 1022.40 1022.63 1022.81 1022.96 1023.10 1023.23 1023.39 1023.57 1023.78 1024.02 1024.26 1024.49 1024.69
1016.29 1016.46 1016.64 1016.82 1017.02 1017.23 1017.46 1017.71 1017.97 1018.23 1018.47 1018.70 1018.89 1019.04 1019.17 1019.25 1019.31 1019.35 1019.38 1019.40 1019.44 1019.50 1019.61 1019.77 1019.99 1020.27 1020.59 1020.95 1021.32 1021.68 1022.01 1022.30 1022.54 1022.74 1022.91 1023.07 1023.24 1023.43 1023.65 1023.88 1024.11 1024.34 1024.54
1016.16 1016.34 1016.54 1016.77 1017.01 1017.26 1017.52 1017.78 1018.03 1018.27 1018.50 1018.72 1018.91 1019.09 1019.25 1019.37 1019.45 1019.49 1019.49 1019.47 1019.43 1019.39 1019.39 1019.43 1019.55 1019.75 1020.02 1020.36 1020.75 1021.14 1021.53 1021.89 1022.20 1022.47 1022.70 1022.90 1023.09 1023.29 1023.49 1023.71 1023.92 1024.13 1024.32
1015.99 1016.18 1016.40 1016.66 1016.93 1017.21 1017.48 1017.73 1017.96 1018.18 1018.39 1018.60 1018.81 1019.02 1019.21 1019.38 1019.50 1019.57 1019.57 1019.51 1019.41 1019.29 1019.18 1019.11 1019.12 1019.23 1019.44 1019.75 1020.13 1020.56 1021.00 1021.43 1021.82 1022.16 1022.45 1022.70 1022.92 1023.13 1023.32 1023.51 1023.70 1023.88 1024.04
1015.75 1015.94 1016.17 1016.44 1016.74 1017.02 1017.29 1017.53 1017.75 1017.94 1018.13 1018.33 1018.55 1018.78 1019.02 1019.24 1019.41 1019.52 1019.54 1019.47 1019.34 1019.15 1018.96 1018.80 1018.72 1018.74 1018.89 1019.15 1019.52 1019.97 1020.45 1020.94 1021.40 1021.81 1022.17 1022.47 1022.72 1022.94 1023.13 1023.30 1023.46 1023.61 1023.75
1015.41 1015.58 1015.81 1016.09 1016.39 1016.68 1016.94 1017.17 1017.36 1017.54 1017.71 1017.91 1018.13 1018.39 1018.66 1018.92 1019.14 1019.29 1019.34 1019.29 1019.15 1018.93 1018.69 1018.47 1018.32 1018.28 1018.37 1018.60 1018.95 1019.40 1019.91 1020.44 1020.95 1021.43 1021.84 1022.19 1022.48 1022.71 1022.91 1023.07 1023.22 1023.35 1023.48
1014.94 1015.10 1015.32 1015.60 1015.89 1016.18 1016.44 1016.65 1016.83 1016.99 1017.16 1017.35 1017.57 1017.84 1018.13 1018.43 1018.69 1018.87 1018.96 1018.94 1018.81 1018.60 1018.36 1018.12 1017.94 1017.87 1017.92 1018.12 1018.45 1018.88 1019.39 1019.94 1020.49 1021.00 1021.45 1021.85 1022.17 1022.44 1022.65 1022.83 1022.99 1023.12 1023.25
1014.37 1014.51 1014.73 1014.99 1015.28 1015.56 1015.81 1016.02 1016.20 1016.35 1016.51 1016.69 1016.91 1017.17 1017.47 1017.78 1018.05 1018.27 1018.39 1018.41 1018.32 1018.15 1017.94 1017.73 1017.56 1017.49 1017.53 1017.71 1018.02 1018.43 1018.92 1019.46 1020.01 1020.54 1021.02 1021.44 1021.80 1022.11 1022.36 1022.57 1022.76 1022.92 1023.08
1013.75 1013.88 1014.08 1014.33 1014.61 1014.89 1015.14 1015.35 1015.52 1015.67 1015.82 1015.99 1016.20 1016.44 1016.72 1017.02 1017.29 1017.52 1017.67 1017.73 1017.70 1017.60 1017.45 1017.30 1017.19 1017.15 1017.21 1017.38 1017.67 1018.05 1018.51 1019.02 1019.55 1020.06 1020.55 1021.00 1021.39 1021.74 1022.04 1022.30 1022.53 1022.75 1022.95
1013.16 1013.28 1013.47 1013.71 1013.98 1014.24 1014.49 1014.70 1014.87 1015.01 1015.15 1015.31 1015.49 1015.70 1015.95 1016.21 1016.46 1016.68 1016.85 1016.95 1016.98 1016.96 1016.91 1016.85 1016.81 1016.84 1016.94 1017.13 1017.40 1017.75 1018.17 1018.64 1019.12 1019.61 1020.09 1020.54 1020.96 1021.35 1021.70 1022.01 1022.31 1022.58 1022.83
1012.66 1012.79 1012.97 1013.20 1013.45 1013.70 1013.93 1014.13 1014.29 1014.42 1014.55 1014.67 1014.82 1014.99 1015.19 1015.40 1015.62 1015.82 1015.99 1016.12 1016.21 1016.28 1016.32 1016.37 1016.44 1016.55 1016.71 1016.93 1017.20 1017.54 1017.91 1018.33 1018.77 1019.22 1019.67 1020.11 1020.55 1020.96 1021.35 1021.72 1022.06 1022.39 1022.70
1012.32 1012.45 1012.63 1012.84 1013.06 1013.28 1013.49 1013.66 1013.80 1013.91 1014.01 1014.11 1014.21 1014.33 1014.48 1014.63 1014.80 1014.97 1015.13 1015.29 1015.43 1015.57 1015.72 1015.87 1016.05 1016.25 1016.49 1016.75 1017.05 1017.38 1017.73 1018.10 1018.49 1018.90 1019.32 1019.75 1020.18 1020.60 1021.02 1021.42 1021.80 1022.17 1022.52
1012.13 1012.27 1012.44 1012.62 1012.81 1012.98 1013.14 1013.27 1013.37 1013.45 1013.51 1013.57 1013.64 1013.71 1013.80 1013.90 1014.02 1014.15 1014.30 1014.46 1014.65 1014.85 1015.08 1015.34 1015.62 1015.92 1016.24 1016.57 1016.90 1017.24 1017.59 1017.94 1018.30 1018.68 1019.07 1019.47 1019.88 1020.30 1020.71 1021.12 1021.52 1021.91 1022.29
1012.06 1012.20 1012.35 1012.49 1012.62 1012.74 1012.83 1012.90 1012.95 1012.99 1013.01 1013.03 1013.06 1013.09 1013.13 1013.19 1013.27 1013.36 1013.49 1013.65 1013.86 1014.11 1014.40 1014.74 1015.11 1015.51 1015.91 1016.31 1016.70 1017.08 1017.44 1017.80 1018.15 1018.51 1018.88 1019.26 1019.65 1020.05 1020.45 1020.85 1021.24 1021.64 1022.03
1012.02 1012.16 1012.27 1012.37 1012.43 1012.48 1012.49 1012.50 1012.48 1012.47 1012.45 1012.44 1012.44 1012.44 1012.45 1012.48 1012.52 1012.58 1012.69 1012.84 1013.05 1013.32 1013.66 1014.06 1014.50 1014.97 1015.45 1015.93 1016.40 1016.83 1017.25 1017.64 1018.01 1018.37 1018.74 1019.11 1019.48 1019.86 1020.23 1020.61 1020.99 1021.37 1021.76
1011.95 1012.06 1012.14 1012.17 1012.17 1012.13 1012.07 1012.00 1011.93 1011.86 1011.81 1011.78 1011.75 1011.74 1011.73 1011.74 1011.75 1011.79 1011.88 1012.01 1012.21 1012.48 1012.84 1013.26 1013.75 1014.28 1014.84 1015.40 1015.94 1016.45 1016.93 1017.38 1017.81 1018.20 1018.59 1018.97 1019.34 1019.70 1020.07 1020.43 1020.79 1021.17 1021.56
1011.78 1011.86 1011.88 1011.85 1011.78 1011.67 1011.54 1011.41 1011.28 1011.18 1011.10 1011.05 1011.02 1011.00 1010.98 1010.98 1010.98 1011.00 1011.05 1011.16 1011.33 1011.59 1011.93 1012.36 1012.87 1013.44 1014.05 1014.68 1015.30 1015.90 1016.47 1017.00 1017.49 1017.95 1018.39 1018.80 1019.19 1019.57 1019.94 1020.30 1020.67 1021.05 1021.45
1011.49 1011.52 1011.50 1011.42 1011.29 1011.12 1010.94 1010.76 1010.60 1010.47 1010.37 1010.31 1010.28 1010.26 1010.24 1010.23 1010.22 1010.21 1010.24 1010.30 1010.44 1010.65 1010.97 1011.38 1011.89 1012.48 1013.12 1013.80 1014.49 1015.18 1015.83 1016.45 1017.04 1017.58 1018.08 1018.56 1019.00 1019.42 1019.83 1020.23 1020.62 1021.04 1021.47
1011.10 1011.09 1011.02 1010.90 1010.73 1010.54 1010.33 1010.13 1009.96 1009.82 1009.72 1009.65 1009.62 1009.59 1009.57 1009.55 1009.51 1009.48 1009.46 1009.49 1009.57 1009.74 1010.00 1010.38 1010.86 1011.44 1012.10 1012.81 1013.55 1014.30 1015.04 1015.75 1016.42 1017.06 1017.65 1018.21 1018.73 1019.23 1019.70 1020.17 1020.63 1021.10 1021.58
1010.67 1010.61 1010.51 1010.38 1010.21 1010.01 1009.81 1009.62 1009.45 1009.32 1009.22 1009.15 1009.11 1009.07 1009.03 1008.98 1008.92 1008.84 1008.78 1008.75 1008.78 1008.89 1009.10 1009.42 1009.86 1010.42 1011.07 1011.79 1012.55 1013.35 1014.14 1014.92 1015.67 1016.39 1017.08 1017.73 1018.35 1018.93 1019.51 1020.06 1020.61 1021.16 1021.72
1010.26 1010.16 1010.05 1009.92 1009.78 1009.61 1009.45 1009.28 1009.14 1009.02 1008.92 1008.85 1008.79 1008.73 1008.65 1008.56 1008.45 1008.34 1008.22 1008.14 1008.11 1008.16 1008.31 1008.58 1008.98 1009.49 1010.11 1010.81 1011.58 1012.38 1013.21 1014.03 1014.83 1015.62 1016.38 1017.11 1017.82 1018.51 1019.18 1019.84 1020.49 1021.14 1021.78
Thickness
5763 5762 5761 5761 5760 5760 5760 5758 5759 5759 5759 5759 5759 5759 5759 5757 5755 5751 5746 5744 5742 5740 5739 5736 5734 5733 5731 5730 5728 5727 5726 5725 5723 5722 5720 5719 5718 5718 5717 5716 5715 5714 5713
5763 5762 5761 5761 5761 5761 5759 5759 5759 5759 5759 5759 5759 5759 5758 5757 5755 5752 5748 5745 5743 5742 5740 5738 5736 5734 5733 5731 5729 5728 5727 5725 5724 5722 5720 5719 5718 5717 5716 5715 5715 5714 5713
5763 5762 5762 5761 5761 5761 5760 5760 5759 5759 5759 5759 5759 5759 5759 5758 5756 5754 5751 5748 5745 5743 5742 5740 5738 5736 5735 5732 5730 5729 5728 5726 5724 5723 5721 5719 5718 5717 5716 5715 5714 5713 5712
5764 5764 5762 5762 5762 5762 5761 5760 5759 5758 5757 5758 5758 5759 5759 5759 5758 5756 5755 5752 5750 5747 5744 5742 5740 5738 5736 5734 5732 5731 5729 5727 5726 5724 5722 5720 5719 5718 5716 5715 5714 5713 5712
5766 5765 5763 5762 5762 5762 5762 5761 5759 5758 5756 5757 5758 5759 5759 5760 5759 5759 5758 5756 5754 5751 5748 5745 5742 5740 5738 5736 5734 5732 5731 5729 5727 5725 5724 5722 5720 5718 5717 5716 5714 5713 5712
5767 5766 5764 5763 5763 5762 5760 5759 5758 5759 5758 5757 5759 5759 5760 5761 5761 5760 5759 5759 5757 5754 5751 5748 5744 5742 5739 5737 5735 5733 5732 5730 5728 5727 5725 5723 5721 5720 5718 5716 5715 5714 5712
5768 5766 5765 5764 5763 5761 5760 5760 5759 5758 5758 5759 5756 5754 5759 5763 5762 5761 5761 5760 5758 5756 5754 5751 5747 5745 5742 5739 5737 5735 5733 5731 5730 5728 5727 5725 5723 5721 5719 5718 5716 5715 5713
5770 5769 5766 5764 5763 5761 5760 5760 5759 5757 5758 5760 5754 5748 5746 5750 5757 5762 5761 5759 5758 5757 5755 5753 5750 5747 5745 5741 5738 5736 5735 5733 5731 5730 5728 5726 5725 5723 5721 5719 5717 5715 5714
5772 5770 5768 5766 5764 5762 5760 5759 5759 5757 5754 5758 5759 5751 5742 5739 5746 5755 5758 5758 5757 5755 5754 5753 5750 5748 5745 5743 5740 5738 5736 5734 5732 5731 5729 5727 5726 5724 5723 5721 5719 5717 5715
5774 5772 5769 5767 5765 5763 5761 5761 5761 5759 5756 5753 5756 5757 5755 5751 5743 5741 5750 5755 5756 5753 5753 5752 5751 5748 5746 5743 5740 5738 5736 5734 5732 5731 5730 5728 5726 5725 5723 5721 5719 5717 5715
5776 5774 5771 5769 5766 5764 5763 5762 5761 5760 5758 5755 5754 5755 5754 5753 5751 5743 5739 5745 5749 5751 5751 5750 5749 5748 5745 5742 5739 5738 5736 5733 5731 5730 5729 5727 5726 5724 5723 5721 5718 5717 5715
5777 5775 5773 5771 5768 5766 5764 5763 5761 5760 5758 5757 5755 5754 5752 5749 5746 5745 5740 5740 5740 5745 5749 5749 5748 5746 5744 5741 5738 5737 5735 5732 5730 5728 5727 5726 5724 5723 5721 5719 5717 5715 5714
5776 5776 5775 5771 5769 5767 5765 5763 5761 5759 5758 5756 5754 5753 5753 5752 5752 5748 5743 5740 5739 5741 5743 5744 5745 5744 5741 5738 5736 5733 5731 5730 5728 5726 5724 5723 5722 5720 5718 5716 5715 5713 5711
5780 5779 5776 5772 5769 5767 5765 5763 5760 5758 5757 5755 5754 5753 5752 5752 5752 5749 5744 5739 5734 5734 5736 5737 5740 5739 5737 5734 5732 5729 5727 5725 5724 5722 5720 5719 5717 5716 5714 5713 5711 5709 5707
5781 5779 5776 5772 5769 5767 5765 5762 5759 5757 5756 5755 5753 5752 5751 5751 5751 5750 5747 5743 5734 5726 5726 5731 5732 5734 5733 5731 5727 5725 5722 5721 5718 5717 5715 5714 5712 5711 5709 5708 5706 5704 5703
5780 5777 5774 5771 5768 5766 5764 5761 5758 5756 5754 5753 5751 5749 5748 5747 5747 5747 5746 5743 5740 5732 5725 5728 5728 5729 5728 5727 5723 5720 5718 5716 5713 5711 5710 5708 5707 5705 5703 5702 5700 5698 5696
5777 5775 5772 5769 5766 5764 5761 5759 5756 5755 5752 5750 5749 5747 5745 5744 5743 5742 5742 5740 5737 5733 5724 5724 5725 5725 5723 5721 5718 5716 5713 5711 5708 5706 5704 5703 5701 5699 5697 5695 5693 5691 5689
5774 5772 5769 5767 5764 5761 5759 5756 5754 5753 5750 5747 5745 5744 5742 5742 5739 5738 5736 5735 5732 5730 5724 5718 5718 5718 5716 5715 5713 5711 5709 5706 5704 5701 5699 5697 5695 5693 5691 5689 5687 5685 5683
5772 5770 5766 5762 5760 5759 5757 5754 5752 5749 5747 5744 5742 5740 5738 5736 5733 5732 5730 5728 5727 5726 5722 5717 5713 5712 5710 5709 5707 5705 5704 5701 5699 5696 5693 5691 5689 5686 5684 5681 5679 5677 5675
5769 5767 5763 5760 5758 5756 5754 5751 5748 5745 5742 5739 5737 5735 5732 5730 5728 5726 5725 5722 5721 5718 5716 5712 5708 5705 5703 5703 5700 5697 5694 5693 5692 5690 5687 5684 5681 5679 5676 5674 5672 5669 5667
5766 5764 5760 5757 5755 5753 5749 5746 5744 5741 5737 5733 5730 5729 5727 5724 5721 5719 5718 5715 5713 5711 5708 5704 5700 5697 5695 5693 5690 5689 5686 5685 5684 5682 5679 5677 5674 5671 5668 5666 5664 5662 5659
5761 5758 5754 5751 5749 5747 5744 5741 5739 5736 5733 5728 5725 5722 5721 5717 5714 5711 5709 5707 5705 5703 5699 5696 5692 5688 5686 5684 5683 5682 5678 5675 5672 5674 5672 5669 5667 5663 5660 5658 5656 5654 5652
5754 5750 5747 5744 5741 5738 5736 5734 5732 5730 5727 5723 5719 5716 5715 5712 5708 5705 5702 5700 5697 5694 5692 5689 5684 5680 5678 5676 5674 5672 5670 5667 5664 5665 5664 5660 5658 5655 5653 5650 5648 5645 5643
5747 5744 5741 5738 5734 5731 5728 5727 5725 5724 5720 5716 5713 5709 5706 5702 5699 5697 5695 5692 5688 5686 5684 5681 5677 5673 5671 5669 5667 5665 5663 5661 5659 5657 5655 5650 5649 5646 5644 5641 5639 5636 5634
5740 5737 5734 5731 5727 5723 5721 5719 5717 5716 5712 5707 5704 5700 5697 5693 5690 5689 5687 5683 5679 5676 5674 5671 5669 5666 5663 5660 5658 5656 5653 5650 5647 5644 5643 5640 5638 5636 5634 5631 5629 5626 5624
5732 5729 5725 5722 5719 5715 5712 5711 5709 5708 5704 5698 5694 5690 5687 5683 5680 5678 5677 5673 5669 5666 5664 5662 5659 5657 5654 5651 5648 5645 5643 5639 5636 5632 5631 5629 5627 5625 5622 5622 5619 5617 5614